AFL122 UIII-UIUU

Flight info

Callsign AFL122
Flight time N/A
Altitude 17000
Route GOLOS5D GOLOS A810 KUDAR A806 OSTUN OSTUN1P
Aircraft A21N/M-SDE3FGHIRWY/LB1

Departure

Time 2026-05-09 12:05
Airport Irkutsk International Airport (UIII)

Arrival

Time N/A
Airport Baikal International Airport (UIUU)
Time Latitude Longitude Altitude Speed Heading
2026-05-09 11:33 52.27140 104.36249 1601 ft 0 kts 356°
2026-05-09 11:53 52.27146 104.36249 1601 ft 2 kts 359°
2026-05-09 11:53 52.27166 104.36256 1600 ft 5 kts 21°
2026-05-09 11:53 52.27174 104.36291 1599 ft 6 kts 85°
2026-05-09 11:54 52.27158 104.36395 1600 ft 5 kts 108°
2026-05-09 11:54 52.27147 104.36448 1601 ft 4 kts 110°
2026-05-09 11:54 52.27136 104.36493 1601 ft 3 kts 111°
2026-05-09 11:54 52.27128 104.36530 1602 ft 3 kts 111°
2026-05-09 11:55 52.27116 104.36577 1603 ft 6 kts 111°
2026-05-09 11:56 52.26994 104.37118 1610 ft 7 kts 104°
2026-05-09 11:56 52.26999 104.37246 1609 ft 14 kts 84°
2026-05-09 11:56 52.26965 104.37425 1611 ft 18 kts 113°
2026-05-09 11:57 52.26912 104.37625 1614 ft 20 kts 113°
2026-05-09 11:57 52.26853 104.37847 1618 ft 21 kts 113°
2026-05-09 11:57 52.26797 104.38055 1621 ft 18 kts 114°
2026-05-09 11:57 52.26752 104.38225 1626 ft 14 kts 113°
2026-05-09 11:58 52.26714 104.38370 1629 ft 13 kts 112°
2026-05-09 11:58 52.26676 104.38515 1631 ft 13 kts 113°
2026-05-09 11:58 52.26642 104.38645 1635 ft 11 kts 113°
2026-05-09 11:58 52.26609 104.38769 1637 ft 12 kts 113°
2026-05-09 11:59 52.26574 104.38894 1639 ft 11 kts 114°
2026-05-09 11:59 52.26544 104.39006 1643 ft 10 kts 113°
2026-05-09 11:59 52.26515 104.39117 1646 ft 10 kts 113°
2026-05-09 11:59 52.26485 104.39227 1648 ft 11 kts 113°
2026-05-09 12:00 52.26452 104.39354 1649 ft 12 kts 113°
2026-05-09 12:00 52.26414 104.39496 1651 ft 14 kts 113°
2026-05-09 12:00 52.26374 104.39653 1652 ft 15 kts 113°
2026-05-09 12:00 52.26326 104.39829 1651 ft 18 kts 115°
2026-05-09 12:01 52.26271 104.40036 1647 ft 21 kts 112°
2026-05-09 12:01 52.26212 104.40271 1647 ft 22 kts 112°
2026-05-09 12:01 52.26149 104.40496 1650 ft 21 kts 113°
2026-05-09 12:01 52.26090 104.40717 1655 ft 20 kts 112°
2026-05-09 12:02 52.26035 104.40922 1659 ft 19 kts 113°
2026-05-09 12:02 52.25999 104.41073 1663 ft 11 kts 99°
2026-05-09 12:02 52.26028 104.41175 1666 ft 10 kts 32°
2026-05-09 12:02 52.26046 104.41190 1666 ft 0 kts 25°
2026-05-09 12:03 52.26051 104.41193 1666 ft 2 kts 25°
2026-05-09 12:03 52.26076 104.41213 1666 ft 5 kts 25°
2026-05-09 12:03 52.26121 104.41248 1666 ft 8 kts 25°
2026-05-09 12:03 52.26186 104.41296 1666 ft 11 kts 24°
2026-05-09 12:04 52.26241 104.41249 1664 ft 12 kts 293°
2026-05-09 12:04 52.26246 104.41226 1663 ft 0 kts 292°
2026-05-09 12:04 52.26275 104.41119 1661 ft 39 kts 293°
2026-05-09 12:04 52.26487 104.40347 1648 ft 107 kts 290°
2026-05-09 12:05 52.26859 104.38937 1627 ft 163 kts 294°
2026-05-09 12:05 52.27365 104.37093 1886 ft 186 kts 295°
2026-05-09 12:05 52.27909 104.35131 2372 ft 200 kts 296°
2026-05-09 12:05 52.28506 104.33015 3007 ft 209 kts 297°
2026-05-09 12:06 52.29119 104.30867 3692 ft 212 kts 296°
2026-05-09 12:06 52.29814 104.28760 4121 ft 221 kts 313°
2026-05-09 12:06 52.31205 104.27509 4345 ft 241 kts 352°
2026-05-09 12:06 52.32882 104.27970 4668 ft 260 kts 27°
2026-05-09 12:07 52.34145 104.30096 5176 ft 274 kts 62°
2026-05-09 12:07 52.34510 104.33134 5812 ft 281 kts 89°
2026-05-09 12:07 52.34328 104.36325 6473 ft 285 kts 95°
2026-05-09 12:07 52.34046 104.39562 7087 ft 290 kts 95°
2026-05-09 12:08 52.33778 104.42806 7712 ft 294 kts 94°
2026-05-09 12:08 52.33534 104.46143 8354 ft 297 kts 93°
2026-05-09 12:08 52.33313 104.49480 8973 ft 301 kts 92°
2026-05-09 12:08 52.33102 104.52877 9607 ft 304 kts 92°
2026-05-09 12:09 52.32895 104.56317 10250 ft 307 kts 92°
2026-05-09 12:09 52.32690 104.59858 10660 ft 320 kts 92°
2026-05-09 12:09 52.32479 104.63568 10971 ft 336 kts 92°
2026-05-09 12:10 52.31786 104.75478 12264 ft 362 kts 92°
2026-05-09 12:10 52.31543 104.79562 12864 ft 364 kts 92°
2026-05-09 12:10 52.31300 104.83659 13465 ft 367 kts 92°
2026-05-09 12:11 52.31053 104.87814 14027 ft 370 kts 92°
2026-05-09 12:11 52.30801 104.92028 14566 ft 373 kts 92°
2026-05-09 12:11 52.30551 104.96196 15107 ft 376 kts 92°
2026-05-09 12:11 52.30289 105.00491 15649 ft 378 kts 92°
2026-05-09 12:12 52.30030 105.04739 16164 ft 381 kts 93°
2026-05-09 12:12 52.29766 105.09017 16676 ft 383 kts 93°
2026-05-09 12:12 52.29499 105.13318 16957 ft 384 kts 93°
2026-05-09 12:12 52.29226 105.17676 16974 ft 383 kts 93°
2026-05-09 12:13 52.28952 105.22006 16979 ft 383 kts 93°
2026-05-09 12:13 52.28682 105.26269 16975 ft 383 kts 92°
2026-05-09 12:13 52.28499 105.29163 16979 ft 383 kts 92°
2026-05-09 12:13 52.28257 105.34956 16976 ft 382 kts 88°
2026-05-09 12:14 52.28267 105.39235 16976 ft 381 kts 85°
2026-05-09 12:14 52.28350 105.43546 16974 ft 381 kts 84°
2026-05-09 12:14 52.28443 105.47829 16974 ft 381 kts 84°
2026-05-09 12:14 52.28535 105.52125 16983 ft 381 kts 84°
2026-05-09 12:15 52.28624 105.56451 16985 ft 381 kts 85°
2026-05-09 12:15 52.28710 105.60792 16979 ft 381 kts 84°
2026-05-09 12:15 52.28792 105.65091 16983 ft 382 kts 85°
2026-05-09 12:15 52.28872 105.69413 16983 ft 382 kts 85°
2026-05-09 12:16 52.28925 105.72334 16986 ft 382 kts 85°
2026-05-09 12:16 52.29027 105.78075 16968 ft 381 kts 85°
2026-05-09 12:16 52.29103 105.82365 16965 ft 381 kts 85°
2026-05-09 12:16 52.29178 105.86694 16973 ft 380 kts 85°
2026-05-09 12:17 52.29250 105.91001 16966 ft 381 kts 85°
2026-05-09 12:17 52.29319 105.95265 16951 ft 382 kts 85°
2026-05-09 12:17 52.29390 105.99619 16969 ft 382 kts 85°
2026-05-09 12:17 52.29457 106.03915 16961 ft 381 kts 85°
2026-05-09 12:18 52.29501 106.06797 16956 ft 382 kts 85°
2026-05-09 12:18 52.29586 106.12569 16951 ft 381 kts 85°
2026-05-09 12:18 52.29649 106.16917 16944 ft 381 kts 85°
2026-05-09 12:18 52.29709 106.21179 16945 ft 381 kts 85°
2026-05-09 12:19 52.29768 106.25493 16941 ft 381 kts 85°
2026-05-09 12:19 52.29826 106.29851 16939 ft 381 kts 85°
2026-05-09 12:19 52.29882 106.34161 16946 ft 382 kts 85°
2026-05-09 12:19 52.29935 106.38453 16940 ft 381 kts 85°
2026-05-09 12:20 52.29989 106.42761 16934 ft 381 kts 86°
2026-05-09 12:20 52.29740 106.47070 16923 ft 385 kts 101°
2026-05-09 12:20 52.28707 106.51097 16925 ft 388 kts 120°
2026-05-09 12:20 52.27068 106.54647 16942 ft 389 kts 128°
2026-05-09 12:21 52.25349 106.57974 16931 ft 388 kts 129°
2026-05-09 12:21 52.23599 106.61328 16919 ft 389 kts 128°
2026-05-09 12:21 52.21855 106.64700 16665 ft 387 kts 128°
2026-05-09 12:21 52.20129 106.68069 16415 ft 386 kts 129°
2026-05-09 12:22 52.18430 106.71402 16159 ft 384 kts 128°
2026-05-09 12:22 52.16749 106.74709 15908 ft 383 kts 128°
2026-05-09 12:22 52.15058 106.78033 15660 ft 381 kts 128°
2026-05-09 12:22 52.13370 106.81350 15369 ft 379 kts 128°
2026-05-09 12:23 52.11700 106.84627 15138 ft 378 kts 128°
2026-05-09 12:23 52.10028 106.87889 14877 ft 376 kts 129°
2026-05-09 12:23 52.08337 106.91134 14526 ft 375 kts 129°
2026-05-09 12:23 52.06664 106.94322 14153 ft 373 kts 129°
2026-05-09 12:24 52.04993 106.97536 13717 ft 371 kts 127°
2026-05-09 12:24 52.03674 107.01041 13264 ft 366 kts 112°
2026-05-09 12:24 52.02905 107.04961 12802 ft 361 kts 99°
2026-05-09 12:24 52.02461 107.08904 12359 ft 358 kts 96°
2026-05-09 12:25 52.02062 107.12875 11920 ft 357 kts 96°
2026-05-09 12:25 52.01661 107.16836 11472 ft 356 kts 96°
2026-05-09 12:25 52.01246 107.20811 11038 ft 354 kts 97°
2026-05-09 12:25 52.00831 107.24693 10596 ft 353 kts 97°
2026-05-09 12:26 52.00407 107.28583 10273 ft 346 kts 97°
2026-05-09 12:26 51.99991 107.32342 10117 ft 334 kts 97°
2026-05-09 12:26 51.99584 107.35988 10050 ft 320 kts 97°
2026-05-09 12:26 51.99198 107.39439 9961 ft 307 kts 97°
2026-05-09 12:27 51.98824 107.42788 9670 ft 304 kts 96°
2026-05-09 12:27 51.98449 107.46143 9283 ft 303 kts 96°
2026-05-09 12:27 51.98070 107.49536 8901 ft 302 kts 96°
2026-05-09 12:27 51.97697 107.52866 8558 ft 300 kts 97°
2026-05-09 12:28 51.97325 107.56146 8216 ft 298 kts 97°
2026-05-09 12:28 51.96955 107.59407 7876 ft 296 kts 97°
2026-05-09 12:28 51.96584 107.62672 7518 ft 294 kts 97°
2026-05-09 12:28 51.96212 107.65929 7278 ft 288 kts 97°
2026-05-09 12:29 51.95858 107.69018 7248 ft 273 kts 97°
2026-05-09 12:29 51.95511 107.71949 7259 ft 264 kts 101°
2026-05-09 12:29 51.94689 107.74644 7244 ft 271 kts 133°
2026-05-09 12:29 51.93109 107.76193 7049 ft 269 kts 167°
2026-05-09 12:30 51.91898 107.76559 6868 ft 265 kts 175°
2026-05-09 12:30 51.89463 107.76943 6396 ft 265 kts 175°
2026-05-09 12:30 51.85822 107.77115 5679 ft 258 kts 206°
2026-05-09 12:31 51.84488 107.75372 5336 ft 245 kts 244°
2026-05-09 12:31 51.83988 107.70228 4722 ft 233 kts 269°
2026-05-09 12:31 51.83859 107.67650 4463 ft 229 kts 267°
2026-05-09 12:32 51.83668 107.65080 4128 ft 228 kts 265°
2026-05-09 12:32 51.83422 107.62617 3798 ft 220 kts 261°
2026-05-09 12:32 51.83114 107.60208 3487 ft 219 kts 260°
2026-05-09 12:32 51.82896 107.58613 3301 ft 215 kts 259°
2026-05-09 12:33 51.82492 107.55608 2927 ft 198 kts 260°
2026-05-09 12:33 51.82217 107.53516 2649 ft 185 kts 260°
2026-05-09 12:33 51.81958 107.51539 2355 ft 172 kts 260°
2026-05-09 12:33 51.81715 107.49741 2064 ft 160 kts 260°
2026-05-09 12:34 51.81501 107.48056 1841 ft 145 kts 260°
2026-05-09 12:34 51.81296 107.46508 1695 ft 142 kts 261°
2026-05-09 12:34 51.81169 107.45482 1669 ft 128 kts 260°
2026-05-09 12:34 51.81001 107.44203 1684 ft 69 kts 258°
2026-05-09 12:35 51.80984 107.44074 1684 ft 60 kts 259°